This is the latest recevied weather packets stored in our database for station/object KE8URB. If no packets are shown the sender has not sent any weather packets the latest 10 day(s).
| Time | Temp. | Humidity | Pressure | Rain* | Wind** | Luminosity | Snow |
|---|---|---|---|---|---|---|---|
| 1787957548 | 25° C | 62% | 1020.6 hPa | 0 mm | - | 41 W/m² | - |
| 1787957244 | 25° C | 61% | 1020.5 hPa | 0 mm | - | 43 W/m² | - |
| 1787956939 | 25° C | 63% | 1020.7 hPa | 0 mm | - | 39 W/m² | - |
| 1787956638 | 25.56° C | 65% | 1020.7 hPa | 0 mm | - | 35 W/m² | - |
| 1787956333 | 26.11° C | 60% | 1020.7 hPa | 0 mm | - | 78 W/m² | - |
| 1787956028 | 25.56° C | 63% | 1020.5 hPa | 0 mm | - | 45 W/m² | - |
| 1787955723 | 25.56° C | 62% | 1020.7 hPa | 0 mm | - | 138 W/m² | - |
| 1787955419 | 25.56° C | 63% | 1020.5 hPa | 0 mm | - | 161 W/m² | - |
| 1787955118 | 25.56° C | 64% | 1020.4 hPa | 0 mm | - | 183 W/m² | - |
| 1787954814 | 25.56° C | 62% | 1020.5 hPa | 0 mm | - | 190 W/m² | - |
| 1787954510 | 25.56° C | 65% | 1020.5 hPa | 0 mm | - | 205 W/m² | - |
| 1787954209 | 25.56° C | 62% | 1020.6 hPa | 0 mm | - | 216 W/m² | - |
| 1787953903 | 25.56° C | 63% | 1020.5 hPa | 0 mm | - | 190 W/m² | - |
| 1787953602 | 26.11° C | 63% | 1020.6 hPa | 0 mm | - | 216 W/m² | - |
| 1787953298 | 26.11° C | 63% | 1020.7 hPa | 0 mm | - | 229 W/m² | - |
| 1787952995 | 26.11° C | 63% | 1020.8 hPa | 0 mm | - | 269 W/m² | - |
| 1787952690 | 25.56° C | 63% | 1020.5 hPa | 0 mm | - | 283 W/m² | - |
| 1787952389 | 25.56° C | 63% | 1020.6 hPa | 0 mm | - | 299 W/m² | - |
| 1787952086 | 25° C | 66% | 1020.6 hPa | 0 mm | - | 339 W/m² | - |
| 1787951785 | 25.56° C | 65% | 1020.6 hPa | 0 mm | - | 311 W/m² | - |
| 1787951481 | 26.11° C | 63% | 1020.8 hPa | 0 mm | - | 376 W/m² | - |
| 1787951177 | 25.56° C | 64% | 1020.6 hPa | 0 mm | - | 350 W/m² | - |
| 1787950873 | 26.11° C | 62% | 1020.6 hPa | 0 mm | - | 388 W/m² | - |
| 1787950568 | 26.11° C | 63% | 1020.5 hPa | 0 mm | - | 394 W/m² | - |
| 1787950263 | 25.56° C | 63% | 1020.7 hPa | 0 mm | - | 376 W/m² | - |
* Rain latest hour (hover to see other rain measurements)
** Current wind speed in m/s (hover to see current wind gust speed)